Regional Weather Roundup
Issued by NWS

Home | Current Version | Previous Version | Text Only | Print | Product List | Glossary Off
Versions: 1 2 3 4 5 6 7 8 9 10 11 12 13 14 15 16 17 18 19 20 21 22 23 24 25 26 27 28 29 30 31 32 33 34 35 36 37 38 39 40 41 42 43 44 45 46 47 48 49 50

000
ASUS45 KSLC 230010
RWRUT

UTAH REGIONAL WEATHER ROUNDUP
NATIONAL WEATHER SERVICE SALT LAKE CITY UT
600 PM MDT SUN OCT 22 2017

UTZ001>011-023>025-230100-

NORTHERN UTAH

CITY           SKY/WX    TMP DP  RH WIND       PRES   REMARKS
BRIGHAM CITY   CLOUDY    64  26  23 SW3       30.33S
HILL AFB       CLOUDY    62  29  28 SE5       30.34S
LOGAN          CLOUDY    62  32  32 SW3       30.32R
OGDEN          CLOUDY    64  30  27 S6        30.32S
SALT LAKE CITY MOCLDY    67  29  24 SE3       30.32S
TOOELE VALLEY  MOCLDY    61  36  39 W8        30.32S
WENDOVER       PTCLDY    62  27  26 CALM      30.32R
WEST JORDAN    MOCLDY    61  32  33 CALM      30.35S

$$

UTZ011>015-024>027-230100-

CENTRAL/NORTHEAST UTAH

CITY           SKY/WX    TMP DP  RH WIND       PRES   REMARKS
PROVO AIRPORT  MOCLDY    63  30  28 NE7       30.34S
MOAB/CANYONLAN CLEAR     64  15  15 N3        30.33F
DELTA          PTCLDY    63  23  22 CALM      30.36S
PRICE          PTCLDY    58  20  22 E7        30.39R
RICHFIELD      CLEAR     64  27  24 N5        30.39R
ROOSEVELT      CLOUDY    59  23  25 E6        30.32R
VERNAL         CLOUDY    57  23  26 CALM      30.31S

$$

UTZ013>016-019>022-027-230100-

SOUTHERN UTAH

CITY           SKY/WX    TMP DP  RH WIND       PRES   REMARKS
BRYCE CANYON   CLEAR     65  12  12 NW3       30.47S
CEDAR CITY     CLEAR     71  19  14 CALM      30.36S
MILFORD        CLEAR     71  20  14 SE3       30.34S
ST GEORGE      MOCLDY    76  24  14 NW3       30.25F
HANKSVILLE     CLEAR     68  19  15 SE5       30.35S
KANAB          CLEAR     73  23  15 S8        30.37S
BLANDING         N/A     62  17  17 SW3       30.47S

$$

REGIONAL REPORTS     COLORADO/ARIZONA

CITY           SKY/WX    TMP DP  RH WIND       PRES   REMARKS
CRAIG, CO      CLOUDY    56  28  34 W10       30.33R
GRAND JUNCTION CLOUDY    59  20  22 NW10      30.35F
RIFLE, CO      CLOUDY    59  25  27 SW8       30.36S
MONTROSE, CO   CLEAR     59  24  26 NW5       30.39R
CORTEZ, CO     CLEAR     61  18  18 W16       30.38F
COLORADO CITY    N/A     73  30  20 W5        30.37S
PAGE, AZ       CLEAR     68  21  16 CALM      30.31F
GRAND CANYON   CLEAR     69  16  13 N5        30.45S
KINGMAN, AZ    CLEAR     80  25  13 N13       30.27S
FLAGSTAFF, AZ  CLEAR     65  14  14 E7        30.46R

$$

REGIONAL REPORTS    NEVADA/IDAHO/WYOMING

CITY           SKY/WX    TMP DP  RH WIND       PRES   REMARKS
LAS VEGAS, NV  CLEAR     81  28  14 SE3       30.22F
ELY, NY        CLEAR     65  14  14 NW8       30.43R
ELKO, NV       MOCLDY    64  28  25 SW8       30.39S
POCATELLO, ID  CLOUDY    58  37  45 W17G35    30.30R
BURLEY, ID     MOCLDY    59  39  47 W8        30.30R
FORT BRIDGER,    N/A     55  23  29 W24G37    30.37F
EVANSTON, WY   CLOUDY    53  26  35 W17G24    30.41R
ROCK SPRINGS,  CLOUDY    53  24  32 W20G28    30.31R
KEMMERER, WY   CLOUDY    50  27  40 W20G31    30.36R

$$



USA.gov is the U.S. government's official web portal to all federal, state and local government web resources and services.